Content
SEND FEEDBACK

Daily
Averages
Monthly
Summary
United States of America

WASILLA - CARPENTER LAKE, ALASKA


Home > North America > United States > Alaska
Elevation: 160 feet     Latitude: 61 26N     Longitude: 150 03W

WEATHER
 
SELECT A DAY
Number of Records: 227,095;   Date Range: 1/1/95 - 9/21/14
 
SHARE

PRINT THIS DATA

[ ← Previous Day ]
WEATHER ALMANAC - FEBRUARY 13, 2013
[ Next Day → ]
[ °C ]   °F
Weather ElementAverageHighLow
Temperature25.4 °F29.3 °F (2:55 pm)23 °F (5:24 am)
Dewpoint22.1 °F24.8 °F (5:55 pm)20.1 °F (1:55 pm)
Humidity87.4 %93 % (4:49 am)72 % (1:55 pm)
Barometer29.77 in29.83 in (11:55 am)29.66 in (11:55 pm)
Wind Speed4.3 mph15 mph (1:55 pm)
Weather ElementAverage
Visibility9.8 mi
Wind DirectionNNE (36.6 °)

Weather ElementTotal
Precipitation---
Heating Degree Days38.9 (Base 65)
Averaged from 35 records on February 13, 2013
WEATHER CONDITIONS BREAKOUT
WIND DIRECTION BREAKOUT
WEATHER BY HOUR - FEBRUARY 13, 2013
[ °C ]   °F
Local TimeTemperatureDewpointHumidityBarometerVisibilityWind DirectionWind SpeedGust SpeedPrecipitationEventsConditions
1:55 AM23.9 °F21.4 °F90 %29.76 in10.0 miNE (40°)3.5 mphScattered Clouds
2:55 AM24.4 °F21.4 °F88 %29.78 in10.0 miNNE (30°)4.6 mphMostly Cloudy
3:55 AM24.6 °F21.6 °F88 %29.79 in10.0 miENE (60°)5.8 mphScattered Clouds
4:07 AM24.8 °F21.2 °F86 %29.79 in10.0 miENE (60°)6.9 mphPartly Cloudy
4:10 AM24.8 °F21.2 °F86 %29.78 in10.0 miENE (70°)4.6 mphPartly Cloudy
4:16 AM24.8 °F21.2 °F86 %29.79 in10.0 miNNE (30°)8.1 mphClear
4:49 AM24.8 °F23.0 °F93 %29.79 in9.0 miEast (90°)6.9 mphSnowLight Snow
4:55 AM24.4 °F22.3 °F91 %29.79 in8.0 miEast (100°)5.8 mph0.00 inSnowLight Snow
5:24 AM23.0 °F21.2 °F93 %29.79 in10.0 miCalmMostly Cloudy
5:28 AM23.0 °F21.2 °F93 %29.79 in10.0 miCalmMostly Cloudy
5:50 AM23.0 °F21.2 °F93 %29.79 in10.0 miEast (90°)3.5 mphSnowLight Snow
5:51 AM23.0 °F21.2 °F93 %29.78 in9.0 miCalmSnowLight Snow
5:55 AM23.2 °F21.4 °F93 %29.78 in8.0 miCalm0.00 inSnowLight Snow
5:56 AM23.0 °F21.2 °F93 %29.78 in8.0 miCalmSnowLight Snow
6:15 AM24.8 °F21.2 °F86 %29.79 in10.0 miCalmOvercast
6:55 AM24.6 °F22.1 °F90 %29.79 in10.0 miCalm0.00 inOvercast
7:55 AM23.7 °F21.9 °F93 %29.80 in10.0 miNE (40°)5.8 mphOvercast
8:00 AM24.8 °F23.0 °F93 %29.80 in10.0 miNE (40°)5.8 mphSnowLight Snow
8:20 AM24.8 °F21.2 °F86 %29.80 in10.0 miCalmOvercast
8:55 AM24.4 °F21.7 °F89 %29.81 in10.0 miENE (70°)3.5 mph0.00 inOvercast
9:55 AM25.2 °F21.9 °F87 %29.81 in10.0 miNE (50°)5.8 mphOvercast
10:55 AM25.5 °F21.9 °F86 %29.82 in10.0 miVariable3.5 mphPartly Cloudy
11:55 AM26.8 °F21.0 °F79 %29.83 in10.0 miCalmClear
12:55 PM27.7 °F21.9 °F79 %29.80 in10.0 miENE (60°)8.1 mphClear
1:55 PM28.2 °F20.1 °F72 %29.79 in10.0 miNNE (30°)15.0 mphClear
2:55 PM29.3 °F22.5 °F76 %29.78 in10.0 miNNE (30°)13.8 mphPartly Cloudy
3:55 PM29.1 °F23.0 °F78 %29.78 in10.0 miNNE (30°)9.2 mphClear
4:55 PM28.4 °F24.6 °F86 %29.77 in10.0 miNE (40°)11.5 mphScattered Clouds
5:55 PM27.9 °F24.8 °F88 %29.75 in10.0 miNE (40°)9.2 mphPartly Cloudy
6:55 PM28.0 °F24.6 °F87 %29.74 in10.0 miCalmPartly Cloudy
7:55 PM26.8 °F23.7 °F88 %29.73 in10.0 miCalmPartly Cloudy
8:55 PM26.8 °F23.2 °F86 %29.72 in10.0 miNE (50°)3.5 mphPartly Cloudy
9:55 PM26.2 °F23.0 °F88 %29.68 in10.0 miCalmClear
10:55 PM25.7 °F22.3 °F87 %29.67 in10.0 miSW (230°)4.6 mphScattered Clouds
11:55 PM25.3 °F22.5 °F89 %29.66 in10.0 miCalmScattered Clouds
Hourly data recorded from PAED, located miles away from Wasilla - Carpenter Lake, Alaska







STORIES FROM OUR PARTNERS